Wind_Speed
77 83 85 92 92 94 97 98 96 93 87 80 78 76 70 68 66 68 66 63 58 28 38 50 65 59 56 66 63 71 67 51
95 99 100 101 101 107 105 102 100 99 96 92 86 85 80 76 74 73 69 69 62 55 60 74 52 50 60 67 63 62 62 54
106 103 104 108 109 109 105 103 103 100 97 99 94 90 90 86 82 77 78 72 69 67 59 67 67 60 60 49 58 62 54 47
113 112 111 114 111 107 99 95 95 97 97 97 98 95 96 98 91 85 82 83 81 76 78 76 60 63 48 57 62 69 65 57
114 112 115 112 103 94 91 90 89 90 90 89 92 91 94 97 99 91 87 88 87 86 83 78 73 75 74 73 72 75 64 55
108 109 106 100 91 87 83 81 80 80 82 81 79 84 88 95 99 97 93 91 92 93 89 88 83 82 81 78 77 73 61 61
97 93 93 93 84 76 70 66 64 64 67 75 75 76 80 89 98 97 97 95 96 95 97 95 93 90 89 83 75 72 67 56
90 87 81 76 70 64 58 53 52 52 54 59 65 67 73 80 87 93 97 95 99 98 98 96 94 93 90 87 78 72 71 46
75 71 67 62 58 52 48 45 45 43 44 48 51 55 60 69 75 79 85 90 97 102 102 99 97 96 93 89 79 74 70 65
60 56 50 49 49 46 42 39 39 39 38 40 41 44 48 55 64 71 74 78 86 93 100 104 104 104 99 94 85 77 66 59
47 43 42 42 42 40 38 39 36 36 35 35 35 35 39 46 53 62 69 74 79 84 89 93 95 95 97 96 90 83 76 73
43 41 37 37 33 32 34 35 34 32 30 31 32 32 33 36 43 51 59 65 70 76 79 82 84 85 89 88 82 84 80 79
40 37 36 33 32 30 30 26 24 21 21 22 25 27 29 31 35 41 46 52 55 59 64 66 69 72 75 77 78 75 77 76
34 34 34 29 27 24 19 17 14 12 12 14 15 17 19 23 27 29 32 37 42 46 51 56 60 64 66 68 73 74 77 86
32 32 27 26 23 17 17 16 14 12 12 9 7 9 13 14 19 20 22 25 30 34 41 44 50 55 60 64 69 75 78 87
25 22 20 21 15 18 19 17 14 15 11 8 8 9 11 12 16 14 15 23 27 25 28 32 39 44 49 57 61 69 77 86
19 17 21 19 22 22 21 17 16 21 18 17 12 12 10 10 11 14 20 25 23 23 22 28 32 38 43 50 53 55 74 83
19 24 26 22 24 22 20 19 17 21 17 18 17 14 14 13 16 17 22 22 26 24 22 19 26 31 35 39 42 44 63 80
28 32 29 25 25 22 21 20 20 17 15 16 20 21 17 16 16 19 21 19 22 22 20 21 20 26 30 34 39 48 57 73
Wind_Direction
287 286 281 282 281 280 275 274 276 273 269 266 264 262 256 257 252 243 241 245 244 249 271 273 273 272 294 289 286 287 296 293
282 284 284 283 280 280 279 275 270 270 268 262 261 260 258 255 254 256 245 244 240 242 239 245 265 255 276 280 286 289 290 293
284 284 285 284 282 281 280 277 273 268 261 259 257 254 256 255 252 250 253 249 241 237 235 242 250 256 263 260 267 279 281 284
288 288 287 286 284 283 280 274 271 268 261 257 254 252 252 252 250 248 247 250 250 246 242 246 244 248 243 255 257 262 271 272
287 286 287 286 285 281 277 273 270 268 265 258 254 252 246 245 247 247 246 246 247 249 247 245 239 245 244 250 252 263 266 272
283 285 286 285 283 282 280 274 270 266 264 260 252 250 246 243 241 244 244 245 244 245 248 250 248 248 251 250 257 264 265 270
285 284 284 285 284 282 280 276 271 266 260 258 254 249 246 243 241 241 243 244 244 244 246 248 250 252 252 254 254 259 264 258
286 285 282 282 284 284 280 278 274 268 260 255 254 250 244 244 242 244 243 243 242 243 246 248 251 253 254 254 249 252 255 243
283 283 282 281 279 278 279 279 274 267 260 256 251 248 245 242 242 243 245 245 242 241 243 247 249 251 253 254 252 250 249 246
280 278 277 276 275 277 280 277 274 272 264 258 252 249 246 242 240 241 244 246 244 244 243 245 248 250 250 251 250 246 240 236
275 272 270 272 275 279 276 273 270 268 268 265 259 254 248 244 243 241 242 244 245 246 246 247 248 249 249 248 247 246 238 245
278 277 278 278 280 273 269 267 264 263 262 262 262 257 247 240 240 241 243 245 245 247 248 248 248 248 248 248 246 246 240 239
275 279 278 277 274 268 263 266 266 260 254 248 249 250 249 247 243 242 243 245 246 248 249 248 246 244 242 242 240 234 227 226
279 277 274 274 270 268 264 251 231 218 221 225 232 238 244 247 247 246 246 245 245 246 246 246 244 241 238 235 234 230 223 216
277 271 270 261 261 249 230 198 179 172 174 192 207 229 245 254 256 254 253 257 249 246 245 244 243 240 236 231 225 223 218 214
264 258 247 242 225 197 187 178 160 164 157 173 211 243 255 256 275 284 269 266 267 258 257 245 239 239 236 233 229 220 213 212
249 236 222 213 182 185 193 175 177 180 189 196 208 211 222 250 267 269 264 268 263 268 253 241 233 231 230 228 227 223 210 207
222 206 198 184 182 193 186 183 174 185 209 190 199 214 224 235 250 253 263 268 275 273 263 245 235 227 224 226 224 215 208 203
200 191 184 187 192 192 191 194 188 189 210 226 208 202 227 241 232 235 243 256 259 259 252 243 225 231 221 207 202 195 196 198
Height
10624 10619 10612 10604 10597 10594 10594 10597 10596 10602 10608 10609 10607 10609 10619 10625 10633 10641 10646 10650 10661 10683 10674 10663 10666 10668 10666 10661 10665 10666 10665 10663
10598 10593 10586 10581 10574 10565 10565 10569 10574 10572 10575 10583 10589 10587 10592 10602 10609 10613 10624 10631 10639 10651 10658 10657 10656 10654 10655 10653 10651 10654 10652 10651
10560 10560 10557 10549 10541 10537 10535 10530 10530 10535 10539 10545 10556 10564 10566 10576 10585 10593 10598 10608 10620 10630 10633 10635 10640 10643 10644 10644 10644 10644 10646 10646
10520 10519 10516 10509 10506 10502 10501 10497 10494 10493 10501 10509 10518 10531 10541 10544 10557 10567 10576 10584 10592 10605 10612 10615 10623 10627 10631 10628 10629 10633 10637 10639
10491 10486 10479 10472 10472 10470 10466 10465 10465 10461 10463 10476 10483 10494 10509 10517 10526 10539 10548 10558 10568 10575 10588 10596 10602 10606 10612 10610 10613 10621 10627 10630
10461 10455 10447 10442 10440 10438 10437 10435 10434 10436 10435 10441 10453 10462 10475 10487 10497 10507 10520 10529 10540 10550 10557 10566 10578 10582 10590 10594 10599 10605 10611 10614
10437 10430 10422 10413 10414 10413 10410 10409 10406 10409 10412 10413 10422 10435 10443 10456 10467 10481 10490 10501 10511 10522 10530 10541 10550 10559 10568 10576 10582 10588 10595 10602
10407 10403 10398 10395 10391 10389 10388 10387 10385 10386 10389 10394 10400 10410 10420 10428 10440 10451 10464 10475 10485 10495 10503 10513 10522 10530 10539 10548 10560 10569 10576 10590
10384 10379 10377 10376 10373 10372 10370 10370 10369 10370 10372 10375 10381 10388 10398 10407 10417 10427 10438 10449 10460 10469 10478 10487 10495 10502 10513 10522 10534 10544 10551 10563
10367 10364 10363 10360 10358 10358 10358 10357 10356 10356 10358 10361 10367 10374 10382 10389 10397 10407 10416 10423 10433 10442 10452 10461 10469 10476 10485 10495 10506 10519 10526 10537
10351 10350 10349 10348 10347 10347 10345 10343 10344 10345 10347 10350 10354 10361 10368 10374 10379 10386 10395 10400 10409 10417 10424 10432 10442 10451 10458 10468 10481 10491 10499 10512
10335 10336 10338 10336 10336 10336 10334 10333 10334 10337 10340 10342 10343 10347 10354 10360 10365 10370 10375 10380 10387 10392 10400 10408 10416 10423 10429 10438 10452 10463 10473 10484
10326 10326 10325 10326 10325 10326 10326 10329 10330 10332 10333 10334 10335 10339 10342 10347 10353 10357 10362 10366 10371 10376 10379 10383 10390 10395 10402 10412 10421 10432 10442 10455
10315 10315 10315 10317 10317 10318 10321 10322 10324 10326 10328 10329 10331 10333 10336 10339 10343 10347 10350 10353 10356 10358 10360 10362 10365 10369 10375 10385 10397 10406 10416 10426
10306 10305 10307 10308 10310 10314 10315 10317 10320 10322 10324 10326 10328 10330 10332 10333 10335 10337 10340 10341 10342 10344 10345 10347 10349 10352 10358 10364 10370 10380 10394 10411
10297 10298 10299 10302 10308 10309 10311 10314 10317 10320 10323 10325 10327 10328 10330 10330 10331 10333 10335 10333 10332 10333 10335 10335 10337 10340 10345 10351 10358 10369 10381 10397
10291 10293 10296 10301 10305 10306 10309 10314 10317 10319 10320 10323 10326 10327 10327 10328 10329 10330 10330 10328 10328 10328 10327 10326 10328 10331 10335 10340 10347 10359 10371 10384
10286 10289 10293 10298 10302 10305 10309 10312 10314 10316 10318 10320 10323 10324 10326 10327 10327 10327 10326 10327 10326 10324 10324 10323 10323 10324 10328 10334 10342 10351 10362 10376
10283 10287 10291 10296 10300 10304 10307 10310 10311 10314 10317 10318 10321 10323 10324 10325 10324 10323 10323 10324 10324 10324 10322 10322 10321 10321 10324 10328 10334 10341 10353 10368